Powrót do katalogu

STARLINK-11575

AktywnyŁącznośćVLEO
NORAD 63308·PAYLOAD·🇺🇸 United States

Wystrzelony Mar 18, 2025 z Cape Canaveral Space Force Station

Loading…

Następne Przeloty (najbliższe 24 godziny)

TLE

ŚwieżeSource: CelesTrak SupGP

Epoka: Sep 14, 2026, 20:56 UTC

1 63308C 25057B   26257.87270833  .00064869  00000+0  50398-3 0  2576
2 63308  43.0006 204.2402 0001460 259.8759 355.3546 15.70800036    17

Śledź STARLINK-11575 w czasie rzeczywistym z AllMySat

Download on the App Store